sat.trackr.live / text

‹ back to catalog

CENTISPACE-1 GROUP 05 O*

NORAD 69586 · 2026-138E

PAYLOAD ACTIVE UNKNOWN

§ Identity

Operator
Country
PRC
Launch date
2026-06-17
Launch site
JSC
Launch vehicle
Mass (kg)
RCS (m²)

External: N2YO · Heavens-Above · Gunter

§ Orbital elements

Epoch: 2026-09-20T02:08:47.376672Z

Period
101.69 min
Inclination
55.1394°
Eccentricity
0.0012246
Mean motion
14.16002463 rev/d
Perigee alt
830.1 km
Apogee alt
847.7 km
Semi-major
7,217.0 km
B*
8.4420e-5
RAAN
290.5003°
Arg perigee
107.2986°
Mean anomaly
252.9329°
Rev number
1,346

§ Raw data

CENTISPACE-1 GROUP 05 O*1 69586U 26138E   26263.08943723  .00000014  00000+0  84420-4 0  99952 69586  55.1394 290.5003 0012246 107.2986 252.9329 14.16002463 13463

JSON: /api/v1/satellites/69586 · /tle

For live sub-satellite position, see the globe view (requires WebGL).

§ Visibility from observer

Set your observer location to see the next 7 days of passes ≥ 10°. The values pass through the URL so the page stays shareable.

No JS? Fill the form by hand. The geolocation button needs JavaScript.